Klamath Falls, OR

10:12 AM PDT on August 20, 2017 (GMT -0700)
Klamath Falls International

Weather History for KLMT - November, 2013

Change the Weather History Date:

Thursday, November 21, 2013

  Actual Average Record
Temperature  
Mean Temperature 24 °F 33 °F  
Max Temperature 30 °F 43 °F 60 °F (1949)
Min Temperature 19 °F 24 °F 9 °F (1994)
Degree Days  
Heating Degree Days 42 32  
Month to date heating degree days 510 591  
Since 1 July heating degree days 1476 1507  
Cooling Degree Days 0 0  
Month to date cooling degree days 0 0  
Year to date cooling degree days 285 169  
Moisture  
Dew Point 2 °F    
Average Humidity 39    
Maximum Humidity 55    
Minimum Humidity 23    
Precipitation  
Precipitation 0.00 in 0.08 in 1.09 in (1977)
Month to date precipitation 0.34 1.51  
Year to date precipitation 5.25 12.83  
Sea Level Pressure  
Sea Level Pressure 30.32 in    
Wind  
Wind Speed 7 mph (NNE)    
Max Wind Speed 13 mph    
Max Gust Speed -    
Visibility 10 miles    
Events      
T = Trace of Precipitation, MM = Missing Value Source: NWS Daily Summary

Daily Weather History Graph

Daily Weather History Graph

Search for Another Location

Airport or City:

Trip Planner

Search our weather history database for the weather conditions in past years. The results will help you decide how hot, cold, wet, or windy it might be!

Date:

Astronomy

Nov. 21, 2013 Rise Set
Actual Time 7:04 AM PST 4:40 PM PST
Civil Twilight 6:34 AM PST 5:11 PM PST
Nautical Twilight 6:00 AM PST 5:45 PM PST
Astronomical Twilight 5:26 AM PST 6:18 PM PST
Moon 8:22 PM PST (11/21) 10:14 AM PST (11/21)
Length of Visible Light 10h 36m
Length of Day
9h 35m
Waning Gibbous, 84% of the Moon is Illuminated
Nov 21
Waning Gibbous
Nov 25
Last Quarter
Dec 2
New
Dec 9
First Quarter
Dec 17
Full

Hourly Weather History & Observations

Time (PST) Temp. Windchill Dew Point Humidity Pressure Visibility Wind Dir Wind Speed Gust Speed Precip Events Conditions
12:53 AM 27.0 °F 16.7 °F 9.0 °F 47% 30.16 in 10.0 mi NNE 11.5 mph - N/A   Clear
1:53 AM 24.1 °F - 10.9 °F 57% 30.19 in 10.0 mi Calm Calm - N/A   Clear
2:53 AM 26.1 °F 16.8 °F 1.9 °F 35% 30.22 in 10.0 mi NNE 9.2 mph - N/A   Clear
3:32 AM 26.6 °F 16.8 °F -0.4 °F 31% 30.18 in 10.0 mi NNE 10.4 mph - N/A   Clear
3:53 AM 24.1 °F 16.0 °F 1.9 °F 38% 30.24 in 10.0 mi NE 6.9 mph - N/A   Clear
4:53 AM 23.0 °F 11.1 °F 5.0 °F 46% 30.28 in 10.0 mi North 12.7 mph - N/A   Clear
5:53 AM 19.9 °F 9.3 °F 5.0 °F 52% 30.32 in 10.0 mi North 9.2 mph - N/A   Clear
6:53 AM 19.0 °F 12.3 °F 1.0 °F 46% 30.35 in 10.0 mi NNE 4.6 mph - N/A   Clear
7:53 AM 25.0 °F 13.6 °F -4.0 °F 28% 30.35 in 10.0 mi NNE 12.7 mph - N/A   Clear
8:53 AM 28.9 °F 21.1 °F -5.1 °F 23% 30.35 in 10.0 mi NNE 8.1 mph - N/A   Clear
9:53 AM 30.0 °F 24.1 °F 1.9 °F 30% 30.37 in 10.0 mi NNE 5.8 mph - N/A   Clear
10:53 AM - - - N/A% 30.31 in - North - - N/A   Unknown
11:53 AM - - - N/A% 30.31 in - North - - N/A   Unknown
12:53 PM - - - N/A% 30.30 in - North - - N/A   Unknown
1:53 PM - - - N/A% 30.30 in 10.0 mi NE 12.7 mph - N/A   Clear
2:53 PM - - - N/A% 30.31 in 10.0 mi NE 9.2 mph - N/A   Clear
3:53 PM - - - N/A% 30.31 in 10.0 mi ENE 3.5 mph - N/A   Clear
4:53 PM - - - N/A% 30.34 in 10.0 mi NNW 4.6 mph - N/A   Clear
5:53 PM - - - N/A% 30.36 in 10.0 mi North 3.5 mph - N/A   Clear
6:53 PM - - - N/A% 30.38 in 10.0 mi North 3.5 mph - N/A   Clear
7:53 PM - - - N/A% 30.41 in 10.0 mi ENE 6.9 mph - N/A   Clear
8:53 PM - - - N/A% 30.42 in 10.0 mi ESE 5.8 mph - N/A   Clear
9:53 PM - - - N/A% 30.44 in 10.0 mi NE 8.1 mph - N/A   Clear
10:53 PM - - - N/A% 30.44 in 10.0 mi ENE 11.5 mph - N/A   Clear
11:53 PM - - - N/A% 30.44 in 10.0 mi WNW 6.9 mph - N/A   Clear